[[{"header":{"parameterUnit":"m.s-1","parameterCategory":1,"la1":30.2992,"la2":30.254,"lo1":-89.0895,"lo2":-89.0443,"dy":0.0025,"dx":0.0025,"nx":19,"ny":19,"refTime":"2026-05-08T09:00:00:Z","depth":0,"parameterNumber":2,"parameterNumberName":"U-component_of_WINDS"},"data":[0,0,0,-3.9943,-3.9945,-4.0039,-4.0039,-4.0172,-4.0173,0,0,0,0,0,0,0,0,0,0,0,-3.9923,-3.9924,-3.9943,-3.9945,-4.0039,-4.0039,-4.0171,-4.0173,0,0,0,0,0,0,0,0,0,0,0,-3.9923,-3.9924,-3.9926,-3.9946,-4.0039,-4.0039,-4.0171,-4.0096,0,0,0,0,0,0,0,0,0,0,-4.0003,-3.9992,-3.9924,-3.9926,-3.9946,-4.0039,-4.004,-4.0092,-4.0101,-4.0134,0,-4.0167,0,-4.0172,-4.0183,-4.0183,0,0,0,-3.9939,-3.9985,-4.0003,-3.9926,-3.9947,-4.0039,-3.9995,-4.0097,-4.0106,-4.0146,-4.0169,-4.0173,-4.0174,-4.0183,-4.0184,-4.0399,-4.04,0,0,-3.9934,-3.9944,-3.9997,-4.001,-3.9997,-3.9992,-3.9998,-4.0102,-4.0128,-4.0169,-4.0176,-4.0177,-4.0184,-4.0186,-4.0398,-4.0399,0,0,0,-3.9923,-3.9941,-3.9956,-4.0005,-4.0021,-3.9995,-4.0002,-4.0123,-4.0127,-4.0178,-4.0178,-4.0185,-4.0187,-4.0396,-4.0398,-4.0469,0,0,0,-3.992,-3.9935,-3.9954,-3.9962,-4.0019,-4.0074,-4.0021,-4.012,-4.0132,-4.0177,-4.0185,-4.0188,-4.0395,-4.0397,-4.0464,-4.0501,0,0,0,-3.9914,-3.9934,-3.995,-3.9962,-4.0003,-4.0072,-4.0081,-4.0122,-4.0132,-4.0183,-4.0189,-4.0394,-4.0397,-4.046,-4.0494,-4.0559,0,0,0,-3.9911,-4.0014,-3.9952,-4.0066,-4.0002,-4.0116,-4.0081,-4.0165,-4.0217,-4.0186,-4.0395,-4.0398,-4.0459,-4.0489,-4.0554,-4.0613,-4.064,0,0,-4.0046,-4.0031,-4.0097,-4.0044,-4.0171,-4.01,-4.0238,-4.0277,-4.0273,-4.0357,-4.0362,-4.0466,-4.0493,-4.0558,-4.0788,-4.0809,0,0,0,-4.0143,-4.0191,-4.0223,-4.0272,-4.0304,-4.0333,-4.035,-4.0364,-4.0434,-4.0318,-4.0508,-4.0524,-4.0561,-4.0589,-4.0607,-4.0637,-4.0412,-4.0412,-4.0411,-4.0349,-4.0337,-4.0445,-4.0445,-4.0494,-4.0509,-4.0546,-4.0568,-4.0543,-4.0588,-4.0612,-4.0753,-4.0786,-4.08,-4.0831,-4.0645,-4.0645,-4.0645,-4.0646,-4.0543,-4.0608,-4.0571,-4.0663,-4.065,-4.0727,-4.0745,-4.0725,-4.0794,-4.0735,-4.0767,-4.0701,-4.0823,-4.085,-4.0651,-4.065,-4.0649,-4.0649,-4.0648,-4.0675,-4.0703,-4.0718,-4.0787,-4.0842,-4.0838,-4.0905,-4.0892,-4.0879,-4.0911,-4.0934,-4.0933,-4.0928,-4.0923,-4.0924,-4.0924,-4.0925,-4.0925,-4.0925,-4.0804,-4.0818,-4.0877,-4.0918,-4.0946,-4.0983,-4.0998,-4.1026,-4.1053,-4.1038,-4.1038,-4.1007,-4.0838,-4.0794,-4.0933,-4.0932,-4.0931,-4.093,-4.0929,-4.1002,-4.0955,-4.1045,-4.1074,-4.1119,-4.1173,-4.1154,-4.1212,-4.1233,-4.1266,-4.1229,-4.1107,-4.109,-4.1075,-4.1039,-4.1233,-4.1233,-4.1233,-4.1233,-4.1111,-4.1101,-4.1189,-4.1235,-4.1279,-4.1271,-4.1371,-4.1384,-4.1389,-4.1401,-4.1371,-4.1323,-4.1309,-4.13,-4.1281,-4.1246,-4.1488,-4.1489,-4.1489,-4.1232,-4.1225,-4.1313,-4.1317,-4.1351,-4.138,-4.1473,-4.1527,-4.1524,-4.1499,-4.1409,-4.1399,-4.132,-4.1295,-4.1267,-4.1238,-4.1174,0,0]},{"header":{"parameterUnit":"m.s-1","parameterCategory":1,"la1":30.2992,"la2":30.254,"lo1":-89.0895,"lo2":-89.0443,"dy":0.0025,"dx":0.0025,"nx":19,"ny":19,"refTime":"2026-05-08T09:00:00:Z","depth":0,"parameterNumber":3,"parameterNumberName":"V-component_of_WINDS"},"data":[0,0,0,4.2614,4.2615,4.2677,4.2677,4.2751,4.2752,0,0,0,0,0,0,0,0,0,0,0,4.2595,4.2596,4.2614,4.2615,4.2677,4.2677,4.2751,4.2752,0,0,0,0,0,0,0,0,0,0,0,4.2595,4.2595,4.2596,4.2616,4.2677,4.2677,4.2751,4.2705,0,0,0,0,0,0,0,0,0,0,4.2646,4.2629,4.2595,4.2596,4.2616,4.2677,4.2677,4.2703,4.2708,4.2722,0,4.2736,0,4.2745,4.2757,4.2757,0,0,0,4.2615,4.2625,4.2642,4.2596,4.2617,4.2677,4.2649,4.2706,4.2712,4.2728,4.2737,4.274,4.2747,4.2757,4.2758,4.2842,4.2842,0,0,4.2612,4.2605,4.2638,4.2646,4.2639,4.2647,4.2651,4.271,4.2718,4.2737,4.2742,4.2748,4.2758,4.2758,4.2841,4.2842,0,0,0,4.2602,4.2603,4.2619,4.2643,4.2654,4.2649,4.2653,4.2715,4.2721,4.2742,4.2749,4.2758,4.2759,4.2841,4.2841,4.2855,0,0,0,4.26,4.2597,4.2617,4.2614,4.2653,4.2686,4.2658,4.2717,4.2724,4.2748,4.2758,4.276,4.284,4.2841,4.2854,4.2862,0,0,0,4.2591,4.2596,4.2605,4.2614,4.2641,4.2685,4.2695,4.2719,4.2728,4.2757,4.276,4.284,4.2841,4.2853,4.286,4.2882,0,0,0,4.2579,4.2617,4.2606,4.2649,4.264,4.2695,4.2694,4.2735,4.2762,4.2758,4.284,4.2841,4.2853,4.2859,4.288,4.2897,4.2905,0,0,4.2623,4.2622,4.2648,4.264,4.2695,4.2686,4.2742,4.2772,4.278,4.282,4.2822,4.2855,4.286,4.2881,4.2949,4.2955,0,0,0,4.2659,4.2678,4.2694,4.2721,4.2746,4.2767,4.2789,4.28,4.2835,4.28,4.2869,4.2873,4.2885,4.2893,4.2898,4.2908,4.2846,4.2845,4.2845,4.271,4.2719,4.2763,4.2779,4.2805,4.2828,4.2848,4.2866,4.2867,4.2883,4.2894,4.2935,4.2944,4.2948,4.2959,4.2906,4.2906,4.2906,4.2906,4.2773,4.28,4.2801,4.2844,4.2852,4.2887,4.291,4.2909,4.2941,4.2927,4.2939,4.2921,4.2954,4.2963,4.2907,4.2907,4.2907,4.2907,4.2906,4.2806,4.282,4.2834,4.2873,4.2902,4.2917,4.2947,4.2954,4.296,4.2972,4.2983,4.2983,4.2982,4.2977,4.2977,4.2978,4.2978,4.2978,4.2978,4.2833,4.2849,4.2876,4.2906,4.2923,4.2947,4.297,4.2986,4.3006,4.3008,4.3008,4.3005,4.2957,4.2943,4.298,4.298,4.2979,4.2979,4.2979,4.2891,4.2879,4.292,4.2938,4.2972,4.2999,4.3008,4.3041,4.3055,4.307,4.3066,4.3029,4.3028,4.3024,4.3012,4.3065,4.3065,4.3065,4.3065,4.2917,4.2918,4.2961,4.2988,4.3016,4.3028,4.3071,4.3088,4.3104,4.3113,4.3107,4.3093,4.3089,4.309,4.3085,4.3074,4.3141,4.3141,4.3141,4.2952,4.2956,4.2992,4.301,4.3037,4.306,4.31,4.3129,4.3145,4.3144,4.312,4.3117,4.3094,4.3087,4.3085,4.3076,4.3057,0,0]}]]